TimeEDT,TemperatureF,Dew PointF,Humidity,Sea Level PressureIn,VisibilityMPH,Wind Direction,Wind SpeedMPH,Gust SpeedMPH,PrecipitationIn,Events,Conditions,WindDirDegrees,DateUTC
12:54 AM,69.1,68.0,96,30.03,6.0,Variable,3.5,-,0.00,Rain,Light Rain,0,2013-08-01 04:54:00
1:17 AM,69.8,68.0,94,30.03,2.0,Variable,4.6,-,0.07,Rain,Rain,0,2013-08-01 05:17:00
1:27 AM,69.8,68.0,94,30.03,4.0,SSE,3.5,-,0.09,Rain,Light Rain,160,2013-08-01 05:27:00
1:41 AM,69.8,68.0,94,30.02,2.5,Variable,3.5,-,0.13,Rain,Rain,0,2013-08-01 05:41:00
1:54 AM,69.1,68.0,96,30.01,4.0,Calm,Calm,-,0.13,Rain,Light Rain,0,2013-08-01 05:54:00
2:06 AM,69.8,68.0,94,30.01,4.0,Calm,Calm,-,0.01,Rain,Light Rain,0,2013-08-01 06:06:00
2:54 AM,69.1,68.0,96,29.98,5.0,Calm,Calm,-,0.01,,Overcast,0,2013-08-01 06:54:00
3:49 AM,69.8,68.0,94,29.96,5.0,SSE,4.6,-,N/A,,Overcast,160,2013-08-01 07:49:00
3:54 AM,70.0,68.0,93,29.96,4.0,SSE,4.6,-,N/A,,Overcast,160,2013-08-01 07:54:00
4:49 AM,69.8,69.8,100,29.95,5.0,SSE,8.1,-,0.00,,Overcast,160,2013-08-01 08:49:00
4:54 AM,70.0,69.1,97,29.94,5.0,SSE,8.1,-,0.00,,Overcast,160,2013-08-01 08:54:00
5:12 AM,69.8,69.8,100,29.95,5.0,Variable,4.6,-,N/A,,Overcast,0,2013-08-01 09:12:00
5:54 AM,70.0,69.1,97,29.95,5.0,South,5.8,-,N/A,,Overcast,170,2013-08-01 09:54:00
6:54 AM,71.1,70.0,96,29.95,4.0,Variable,4.6,-,0.00,,Overcast,0,2013-08-01 10:54:00
7:13 AM,71.6,69.8,94,29.95,2.0,Variable,3.5,-,N/A,,Overcast,0,2013-08-01 11:13:00
7:36 AM,71.6,69.8,94,29.95,3.0,South,8.1,-,N/A,,Overcast,170,2013-08-01 11:36:00
7:54 AM,71.1,70.0,96,29.94,4.0,South,9.2,-,N/A,,Overcast,170,2013-08-01 11:54:00
8:54 AM,72.0,70.0,93,29.95,4.0,South,8.1,-,0.01,Rain,Light Rain,180,2013-08-01 12:54:00
9:33 AM,73.4,71.6,94,29.94,6.0,South,6.9,-,0.00,,Overcast,190,2013-08-01 13:33:00
9:47 AM,73.4,71.6,94,29.94,5.0,SSW,6.9,-,0.00,,Overcast,200,2013-08-01 13:47:00
9:54 AM,73.0,71.1,93,29.94,6.0,SSW,6.9,-,0.00,,Overcast,200,2013-08-01 13:54:00
10:01 AM,73.4,71.6,94,29.94,7.0,South,8.1,-,N/A,,Overcast,190,2013-08-01 14:01:00
10:30 AM,73.4,71.6,94,29.94,7.0,South,8.1,-,N/A,,Overcast,190,2013-08-01 14:30:00
10:54 AM,73.9,71.1,91,29.93,7.0,South,6.9,-,N/A,,Overcast,190,2013-08-01 14:54:00
11:54 AM,73.9,71.1,91,29.92,5.0,South,5.8,-,0.01,Rain,Light Rain,170,2013-08-01 15:54:00
11:58 AM,73.4,71.6,94,29.92,1.8,South,6.9,-,0.06,Rain-Thunderstorm,Heavy Rain,190,2013-08-01 15:58:00
12:06 PM,73.4,71.6,94,29.92,1.2,South,5.8,-,0.09,Rain-Thunderstorm,Rain,190,2013-08-01 16:06:00
12:12 PM,73.4,71.6,94,29.92,2.0,South,6.9,-,0.12,Rain-Thunderstorm,Heavy Rain,190,2013-08-01 16:12:00
12:29 PM,73.4,71.6,94,29.92,4.0,SSW,3.5,-,0.14,Rain-Thunderstorm,Light Rain,210,2013-08-01 16:29:00
12:36 PM,73.4,71.6,94,29.92,5.0,WSW,3.5,-,0.14,Rain-Thunderstorm,Light Thunderstorms and Rain,240,2013-08-01 16:36:00
12:52 PM,73.4,71.6,94,29.92,2.5,WNW,9.2,-,0.17,Rain-Thunderstorm,Thunderstorms and Rain,300,2013-08-01 16:52:00
12:54 PM,73.0,71.1,93,29.91,2.0,WNW,9.2,-,0.19,Rain-Thunderstorm,Heavy Thunderstorms and Rain,290,2013-08-01 16:54:00
12:57 PM,71.6,71.6,100,29.92,1.2,West,10.4,-,0.10,Rain-Thunderstorm,Heavy Thunderstorms and Rain,270,2013-08-01 16:57:00
1:03 PM,71.6,69.8,94,29.93,0.5,WSW,11.5,-,0.43,Fog-Rain-Thunderstorm,Heavy Thunderstorms and Rain,250,2013-08-01 17:03:00
1:19 PM,69.8,69.8,100,29.92,0.2,Calm,Calm,-,1.17,Fog-Rain-Thunderstorm,Heavy Thunderstorms and Rain,0,2013-08-01 17:19:00
1:24 PM,69.8,69.8,100,29.92,1.0,Calm,Calm,-,1.18,Rain-Thunderstorm,Thunderstorms and Rain,0,2013-08-01 17:24:00
1:27 PM,69.8,69.8,100,29.92,2.0,Calm,Calm,-,1.19,Rain-Thunderstorm,Thunderstorms and Rain,0,2013-08-01 17:27:00
1:43 PM,69.8,69.8,100,29.91,3.0,Calm,Calm,-,1.22,Rain-Thunderstorm,Light Thunderstorms and Rain,0,2013-08-01 17:43:00
1:50 PM,69.8,69.8,100,29.91,3.0,Calm,Calm,-,1.22,Rain-Thunderstorm,Light Thunderstorms and Rain,0,2013-08-01 17:50:00
1:54 PM,70.0,69.1,97,29.91,3.0,Calm,Calm,-,1.22,Rain-Thunderstorm,Light Thunderstorms and Rain,0,2013-08-01 17:54:00
2:02 PM,69.8,69.8,100,29.91,6.0,Calm,Calm,-,0.00,Rain-Thunderstorm,Light Rain,0,2013-08-01 18:02:00
2:11 PM,71.6,69.8,94,29.90,10.0,Calm,Calm,-,0.00,,Overcast,0,2013-08-01 18:11:00
2:21 PM,73.4,71.6,94,29.90,10.0,Calm,Calm,-,0.00,,Overcast,0,2013-08-01 18:21:00
2:51 PM,78.8,73.4,83,29.89,10.0,Calm,Calm,-,0.00,,Partly Cloudy,0,2013-08-01 18:51:00
2:54 PM,78.1,73.0,84,29.89,10.0,Calm,Calm,-,0.00,,Partly Cloudy,0,2013-08-01 18:54:00
3:54 PM,79.0,71.1,77,29.86,10.0,Calm,Calm,-,N/A,,Partly Cloudy,0,2013-08-01 19:54:00
4:18 PM,78.8,71.6,78,29.85,10.0,Calm,Calm,-,N/A,,Mostly Cloudy,0,2013-08-01 20:18:00
4:29 PM,80.6,71.6,74,29.85,10.0,Calm,Calm,-,N/A,,Scattered Clouds,0,2013-08-01 20:29:00
4:54 PM,82.0,70.0,67,29.85,10.0,WNW,4.6,-,N/A,,Scattered Clouds,290,2013-08-01 20:54:00
5:54 PM,82.0,68.0,62,29.86,10.0,Calm,Calm,-,N/A,,Scattered Clouds,0,2013-08-01 21:54:00
6:25 PM,75.2,71.6,89,29.87,10.0,Calm,Calm,-,N/A,Thunderstorm,Mostly Cloudy,0,2013-08-01 22:25:00
6:49 PM,71.6,66.2,83,29.90,1.8,West,16.1,25.3,0.13,Rain-Thunderstorm,Heavy Thunderstorms and Rain,280,2013-08-01 22:49:00
6:54 PM,70.0,66.9,90,29.90,0.8,West,5.8,25.3,0.22,Rain-Thunderstorm,Heavy Thunderstorms and Rain,260,2013-08-01 22:54:00
7:03 PM,69.8,66.2,88,29.89,1.5,ESE,4.6,-,0.07,Rain-Thunderstorm,Heavy Thunderstorms and Rain,120,2013-08-01 23:03:00
7:10 PM,69.8,68.0,94,29.89,3.0,NE,5.8,-,0.10,Rain-Thunderstorm,Light Thunderstorms and Rain,40,2013-08-01 23:10:00
7:39 PM,69.8,68.0,94,29.89,10.0,SW,6.9,-,0.10,,Mostly Cloudy,230,2013-08-01 23:39:00
7:54 PM,69.1,68.0,96,29.88,10.0,WSW,3.5,-,0.10,,Overcast,250,2013-08-01 23:54:00
8:07 PM,69.8,68.0,94,29.89,10.0,Calm,Calm,-,N/A,,Overcast,0,2013-08-02 00:07:00
8:54 PM,68.0,66.9,96,29.88,10.0,Calm,Calm,-,N/A,,Mostly Cloudy,0,2013-08-02 00:54:00
9:54 PM,69.1,66.9,93,29.90,10.0,NW,4.6,-,N/A,,Clear,310,2013-08-02 01:54:00
10:54 PM,66.9,66.0,97,29.91,10.0,Calm,Calm,-,N/A,,Clear,0,2013-08-02 02:54:00
11:45 PM,66.2,66.2,100,29.92,2.5,Calm,Calm,-,0.01,,Partly Cloudy,0,2013-08-02 03:45:00
11:50 PM,66.2,64.4,94,29.92,1.2,Calm,Calm,-,0.01,,Partly Cloudy,0,2013-08-02 03:50:00
11:54 PM,66.0,64.9,96,29.92,1.0,Calm,Calm,-,0.01,,Mist,0,2013-08-02 03:54:00